Baseball 板


LINE

2026 美国职棒例行赛 ▋ 比赛球场 Target Field ▋ 比赛时间 2026.09.01 07:40 底特律老虎 AVG OBP SLG OPS HR RBI SB BB 1.Gleyber Torres (R) 2B .261 .364 .383 .747 8 36 0 46 2.Colt Keith (L) DH .259 .319 .405 .724 9 32 5 28 3.Kevin McGonigle (L) SS .276 .377 .418 .795 14 58 12 81 4.Dillon Dingler (R) C .251 .316 .472 .788 26 82 0 32 5.Brett Callahan (L) LF .259 .300 .481 .781 1 6 0 1 6.Zach McKinstry (L) RF .213 .297 .314 .611 4 26 2 37 7.Spencer Torkelson (R) 1B .220 .312 .403 .715 20 63 0 57 8.Max Clark (L) CF .242 .301 .411 .712 2 13 1 7 9.李灏宇 (R) 3B .266 .312 .411 .723 7 33 2 17 SP.Jackson Jobe (R) 对左打 .227 │ 对右打 .320 G GS IP W L ERA SO BB WHIP 4 4 18.1 1 1 3.93 15 8 1.42 2026赛季成绩 明尼苏达双城 AVG OBP SLG OPS HR RBI SB BB 1.Luke Keaschall (R) RF .274 .364 .390 .754 9 41 15 49 2.Brooks Lee (S) 3B .248 .300 .439 .739 22 73 7 33 3.Kody Clemens (L) 2B .236 .293 .459 .752 22 67 8 30 4.Ryan Jeffers (R) C .270 .375 .464 .839 10 42 1 40 5.Josh Bell (S) DH .255 .318 .421 .739 17 83 2 42 6.Trevor Larnach (L) LF .266 .348 .424 .772 11 45 2 42 7.Royce Lewis (R) 1B .233 .299 .396 .695 13 46 14 34 8.Kaelen Culpepper (R) SS .313 .365 .478 .843 3 6 0 4 9.Walker Jenkins (L) CF .222 .300 .333 .633 0 1 1 1 SP.Taj Bradley (R) 对左打 .215 │ 对右打 .236 G GS IP W L ERA SO BB WHIP 26 26 147.1 9 6 3.97 169 63 1.28 2026赛季成绩 执法裁判│HP: Jeremie Rehak. 1B: Adam Beck. 2B: Dan Iassogna. 3B: Brock Ballou. ────────────────────────────────────── 台湾转播频道 开播时间 主播 讲评 ELTA体育4台 07:35 原音 MOD/OTT 台湾网路转播 Vocal: ELTA(原音) ELTA.TV (付费) https://eltaott.tv/ Hami Video (付费) https://hamivideo.hinet.net/ Vocal: MLB.TV(主场/客场) MLB.TV (付费) https://www.mlb.com/tv/g823663/ Gameday - 文字转播 https://www.mlb.com/gameday/823663/ --



※ 发信站: 批踢踢实业坊(ptt.cc), 来自: 36.229.153.32 (台湾)
※ 文章网址: https://webptt.com/cn.aspx?n=bbs/Baseball/M.1788218823.A.45F.html ※ 编辑: hanksadder (36.229.153.32 台湾), 09/01/2026 07:27:09
1F:推 samuncle123: 终於不是遇到赛扬奖 加油加油 09/01 07:31
2F:推 lsj049: 李灏宇加油~ 09/01 07:34
3F:推 ilovesola: 加油! 09/01 07:36
4F:推 CaminoI: 加油! 09/01 07:39
5F:推 lsj049: 爱尔达开播~ 09/01 07:40
6F:嘘 Eric00132: 体育二台 李政厚出赛 09/01 07:43
7F:推 lsj049: 老虎把John Peck 升上来了 09/01 07:43
8F:→ lsj049: https://i.imgur.com/XrxsWiT.jpeg 09/01 07:43
9F:→ Eric00132: 体育四台 怎麽没李灏宇的出赛字卡 09/01 07:44
10F:推 Artist: 李打第9棒 成绩好像都比较好 今天可以再验证一下 09/01 07:45
11F:推 CaminoI: John Peck查一下好像二三游都有守 工具人? 09/01 07:50
12F:推 hansvonboltz: 对面也有李 09/01 07:51
13F:推 cubanmesa: 爱尔达:老虎李灏宇<巨人李政後<道奇大谷 09/01 07:54
14F:→ CaminoI: 刚才勇士还有上投手Lee 09/01 07:55
15F:推 rong1994: 老虎这打线真的惨 09/01 07:55
16F:→ x75917x: 老虎打击真的毫无期待感 09/01 07:57
17F:→ CaminoI: 单看先发个人数据都有两成以上 好像没那麽差 但实际上近 09/01 07:57
18F:→ CaminoI: 期整体发挥串连少 09/01 07:57
19F:嘘 t340081231: 嘘爱尔达记得做李政厚字卡结果没有李灏宇的字卡 09/01 07:57
20F:→ CaminoI: 和五月时好几位一成打者状态 结果差不多 09/01 07:58
21F:推 JackeyChen: 好凉啊 09/01 07:58
22F:→ CaminoI: 有生意 09/01 08:00
23F:推 luyun15: 我开爱尔达看没字卡还以为今天没先发= = 09/01 08:02
24F:推 wenhh88: 八字不够重,打789棒当奇兵就好 09/01 08:04
25F:推 CaminoI: 灏宇已经是今天先发打线打击率第二高的 仅次於少主 09/01 08:06
26F:推 cubanmesa: 集合 09/01 08:08
27F:推 lsj049: 战队集合 09/01 08:08
28F:推 ProducerChen: 集合 09/01 08:08
29F:推 CaminoI: 加油 09/01 08:08
30F:推 JackeyChen: 对面的Lee Np 09/01 08:08
31F:推 Chen96770: 集合 09/01 08:08
32F:→ CaminoI: 三垒的Lee 09/01 08:09
33F:推 freeview: 海 09/01 08:09
34F:→ ProducerChen: 好好选! 09/01 08:09
35F:→ ProducerChen: 今天有两个三垒李 09/01 08:09
36F:→ lsj049: 怎麽不拍头 09/01 08:09
37F:→ CaminoI: 应该挑战的 09/01 08:09
38F:推 hsuaninteen: 挑战484就BB了 09/01 08:09
39F:→ CaminoI: 本来是连四颗坏球阿 09/01 08:09
40F:→ ProducerChen: 满 09/01 08:10
41F:→ hanksadder: H 09/01 08:10
42F:推 cubanmesa: H 09/01 08:10
43F:推 Daniel0712: H 09/01 08:10
44F:→ lsj049: HHHH 09/01 08:10
45F:推 crayon1988: 还是穿 09/01 08:10
46F:推 hansvonboltz: 安 09/01 08:10
47F:→ freeview: 这滚动XD 09/01 08:10
48F:→ CaminoI: 安打 这个结果好像比较好 XD 09/01 08:10
49F:推 JackeyChen: 找洞 09/01 08:10
50F:→ ProducerChen: HHHHH 09/01 08:10
51F:推 ele55055: 李很少挑战 09/01 08:10
52F:推 Franc1224: 舒服 09/01 08:10
53F:推 Axwell: 幸运 09/01 08:10
54F:推 Benbenyale: 安打 09/01 08:10
55F:推 neo74214: 水啦 找洞钻! 09/01 08:10
56F:推 snoopy63: 水 09/01 08:10
57F:推 rong1994: 安打 09/01 08:10
58F:推 murmur38: 硬是钻出了内野 09/01 08:10
59F:推 MK47: hhhhhh 09/01 08:10
60F:推 koi33000: 有啦 09/01 08:10
61F:推 as5688ck: 赞赞 09/01 08:10
62F:推 b9441118: 找洞钻推打安 09/01 08:10
63F:推 kickvsbrad: 安 09/01 08:10
64F:推 hpfan: 水啦 09/01 08:10
65F:推 a0933879446: HHH 09/01 08:10
66F:推 s31127: 安安安安安 09/01 08:10
67F:推 Tonyx599026: 鸟安也是安 舒服 09/01 08:10
68F:推 zerozero8: 鸟穿也是安 赞 09/01 08:10
69F:推 photoB1N: 这也行 算你厉害 09/01 08:10
70F:推 jjooee1428: 爽啦运气不错 09/01 08:10
71F:推 sweam: 安打啦! 09/01 08:10
72F:→ CaminoI: 太强劲 第一位拦不下来就没办法了 09/01 08:10
73F:推 kevin74105: 超刁钻安打 09/01 08:10
74F:推 moonzone: H 09/01 08:10
75F:→ hansvonboltz: 94.6mph 09/01 08:10
76F:→ koi33000: 有一球可以挑战的说 好可惜 不然保送了 09/01 08:11
77F:推 crayon1988: EV94.6mph 09/01 08:11
78F:推 HotGirlBear: 今天老虎第一安 09/01 08:11
79F:推 space20021: 水水水 09/01 08:11
80F:推 yiersan: 猛 09/01 08:11
81F:推 clerkhsiao: 很会找洞钻 09/01 08:11
82F:→ CaminoI: 贡献老虎本场第一安 09/01 08:11
83F:推 caeiu: 可惜 09/01 08:11
84F:推 Augustus5: 每日任务又达成啦 09/01 08:11
85F:推 t340081231: 94.6也不算是鸟安了 09/01 08:11
86F:推 Eric00132: 拖天子... 09/01 08:11
87F:推 pipizone: 主审误判捡到安打XDD 09/01 08:11
88F:推 qoo2002s: 说不定是球队不想要菜鸟在比赛前段挑战 09/01 08:11
89F:推 jiaxie: BB没有,换到Single 09/01 08:11
90F:→ as5688ck: 老虎打了1.5DP 09/01 08:12
91F:→ CaminoI: 不鸟阿 很强劲 是对方野手扑了让你觉得好像有机会 09/01 08:12
92F:推 ProducerChen: 老虎主播是真的很喜欢他 刚刚那颗运气超好没打好还 09/01 08:12
93F:→ ProducerChen: 是穿了 但还是吹XD 09/01 08:12
94F:推 ggdesu: 今天运气好一点 09/01 08:12
95F:推 JeremyNeil: 赞赞 09/01 08:12
96F:→ CaminoI: 就不是关键时刻 也没必要 09/01 08:12
97F:推 koi33000: 整队就他安打 吹一下ok 09/01 08:12
98F:推 wouldyou: 赞 每日任务达成 09/01 08:13
99F:推 yiersan: 最近运气不好 该补了 09/01 08:13
100F:→ CaminoI: 打出老虎目前唯一一安 不吹他吹谁 XD 09/01 08:13
101F:推 myhope203: 被主审搞到一只安打 09/01 08:13
102F:推 rong1994: 冷胡椒 2b 09/01 08:14
103F:推 jkokpcu: 打地板3个弹跳也能穿越XD 09/01 08:15
104F:推 wumint: 差点被拦到, 一垒有人还是比较容易穿。 09/01 08:15
105F:推 shigeno24: 对欸居然有94麦转播看起来鸟鸟的 09/01 08:15
106F:推 ericlin5230: 这球用看的真的鸟 09/01 08:16
107F:推 benboy: 弹那麽多次也能穿 是真的够快吧XD 09/01 08:16
108F:推 CaminoI: 对面的三垒手Lee 09/01 08:16
109F:推 HotGirlBear: 最近很多强击球进手套,校正回归一下 09/01 08:17
110F:→ CaminoI: 我们的三垒手Lee发动DP 09/01 08:17
111F:推 wumint: np 09/01 08:17
112F:推 koi33000: 水喔 09/01 08:17
113F:推 rong1994: 帅啊 09/01 08:17
114F:推 ericlin5230: LEE解决LEE 09/01 08:17
115F:推 kevin74105: Lee Dp 09/01 08:17
116F:→ hanksadder: 水喔 09/01 08:17
117F:推 jiaxie: 帅! 09/01 08:17
118F:→ koi33000: 主播又能吹了 09/01 08:17
119F:推 caeiu: Lee DP Lee 09/01 08:17
120F:推 zealotlai274: 有打击有np 09/01 08:18
121F:推 Mryuan: 还好没粥 09/01 08:18
122F:推 myfreeday: LEE被LEE双杀 09/01 08:18
123F:推 neo74214: Lee打给Lee 09/01 08:18
124F:→ murmur38: Lee击出强劲滚地球 被Lee接到发动双杀 09/01 08:18
125F:→ Mrlegend: McG又快又准 09/01 08:19
126F:推 Jimimy: 美国这些姓Lee的祖先是怎麽有这个姓的阿? 09/01 08:20
127F:推 CaminoI: 5K 09/01 08:21
128F:推 t340081231: Keith最近真的有够凉 09/01 08:21
129F:→ Jimimy: Keith最近真的有点惨 09/01 08:21
130F:推 CaminoI: Lee是英语原本就有的姓氏 09/01 08:22
131F:→ Jimimy: 外野手记错出局数 09/01 08:23
132F:→ CaminoI: 源自古英语 所以看到是白人居多 09/01 08:23
133F:推 myfreeday: 毫无招架之力耶 09/01 08:24
134F:推 t340081231: 老虎这条打线ops看起来都不错 怎麽这麽凉 09/01 08:24
135F:推 freeview: 这打线还没从道奇战走出来吗 09/01 08:26
136F:推 a27783322: 老虎最近是啥情况== 也太烙赛 09/01 08:27
137F:推 CaminoI: 炸裂…… 09/01 08:27
138F:→ hanksadder: 炸 09/01 08:27
139F:推 kevin74105: 真大号 09/01 08:27
140F:推 caeiu: 炸了 09/01 08:27
141F:→ caeiu: 不知道Riley Greene回来会不会好一点 09/01 08:27
142F:推 CRonaldo07: 李不输对面第一轮大物的Lee 09/01 08:27
143F:→ CaminoI: 狂换代打就会让个人数据不致於跌太多 09/01 08:27
144F:推 FAYeeeeeeee: 两边三垒手同姓 09/01 08:29
145F:推 CaminoI: 这个看起来有机会守下的 少主…… 09/01 08:33
146F:推 gh2480f0210: 二垒手在搞吧 09/01 08:33
147F:推 koi33000: 少主累了? 09/01 08:33
148F:推 rong1994: 少主怎麽最近守备也是有点怪怪的 09/01 08:34
149F:推 freeview: 算了 反正进季後赛的机会跟没有了一样 就当是打身价了 09/01 08:35
150F:推 hanx5566: 大联盟守备???? 09/01 08:35
151F:推 jiaxie: 一搞再搞 09/01 08:35
152F:推 CaminoI: 这个看起来有机会接的说 一直煮粥 09/01 08:35
153F:→ benrun: 这局守备.. 09/01 08:35
154F:推 Mryuan: 少煮粥 09/01 08:35
155F:推 koi33000: ??? 09/01 08:36
156F:推 kevin74105: 好大一锅粥 09/01 08:36
157F:→ hanx5566: 这接球难度在哪,CPBL都不会发生 09/01 08:36
158F:推 a0561349: 这能漏阿 09/01 08:36
159F:推 pai0306: 什麽鬼 09/01 08:36
160F:→ klwcoco: 说李灏宇防守烂的看看这2游 烂的有剩 09/01 08:36
161F:→ CaminoI: 我以为在看台钢比赛 (X) 09/01 08:36
162F:→ hanx5566: 也不是传在地上为什麽能接不住 09/01 08:36
163F:→ jiaxie: 这次能dp吗,科科 09/01 08:36
164F:推 kickvsbrad: 这球算失误吗 09/01 08:36
165F:→ CaminoI: 但少主是队上打击率最高 叫他用棒子道歉吧 09/01 08:37
166F:推 a24862684: 守备比中职还烂 09/01 08:37
167F:→ jiaxie: 投手应该心里抹爽 09/01 08:37
168F:→ benrun: 还好下庄 09/01 08:38
169F:推 mike13112: 投手有够扛 09/01 08:38
170F:推 JeremyNeil: 这样投手还是蛮屌的 09/01 08:38
171F:推 CaminoI: 被记安打阿 投手真衰 09/01 08:39
172F:推 mp5good: 失误难免吧控制好数量就好 09/01 08:40
173F:推 CaminoI: 老虎第二只安打出现 McK 09/01 08:41
174F:推 koi33000: 这局有机会上吗 09/01 08:42
175F:推 CaminoI: 应该把灏宇和脱壳棒次调换的 09/01 08:44
176F:推 rong1994: 欸欸欸再上垒一个拜托 09/01 08:44
177F:→ CaminoI: 真的好凉 这样打击根本无法串连 09/01 08:44
178F:→ rong1994: … 09/01 08:45
179F:→ allenbaba: 又 打不到 垒上有人 09/01 08:45
180F:推 koi33000: 没机会 09/01 08:45
181F:→ hanksadder: GG 又要下一局了... 09/01 08:45
182F:推 neo74214: 打线真的很悲剧 09/01 08:45
183F:→ kevin74105: 惨 都不给李打点集会 09/01 08:45
184F:推 myfreeday: 超人一球死 09/01 08:45
185F:→ koi33000: 最近都没打点 09/01 08:45
186F:推 bingreen: 老虎打线怎麽有点弱= = 09/01 08:46
187F:推 mp5good: max clark挥第一球自杀 09/01 08:46
188F:推 CaminoI: 灏宇也…… 09/01 08:47
189F:推 TRosenthal: …. 09/01 08:47
190F:推 sharrys: 李失误 09/01 08:47
191F:→ TRosenthal: 守备啊 09/01 08:47
192F:推 myfreeday: 靠 09/01 08:47
193F:→ hansvonboltz: .... 09/01 08:47
194F:→ Mryuan: 蒸丸 09/01 08:47
195F:推 photoB1N: 完蛋 09/01 08:47
196F:推 neo74214: E 09/01 08:47
197F:推 marx93521: E 09/01 08:47
198F:推 iamzara: 这守备... 09/01 08:47
199F:推 caeiu: 丑了 09/01 08:47
200F:推 leo79415: 你们还敢笑少主阿 回力镖不就来了 笑死 09/01 08:48
201F:推 mp5good: 好e 09/01 08:48
202F:推 JeremyNeil: ......今天大家是怎样 09/01 08:48
203F:→ CaminoI: 底特律台钢是不是?一直粥 09/01 08:48
204F:→ MK47: ...... 09/01 08:48
205F:推 rong1994: 完蛋了 09/01 08:48
206F:→ marx93521: 守备再加油吧 09/01 08:48
207F:→ Mrlegend: 乾 09/01 08:48
208F:推 jiaxie: 李守备还是... 09/01 08:48
209F:→ CaminoI: 少主是拿大约的阿 09/01 08:48
210F:推 kevin74105: 太烫了 09/01 08:48
211F:推 koi33000: 今天球很烫? 09/01 08:48
212F:推 freeview: 投手满命苦的 09/01 08:48
213F:推 zzz753951753: 心不在焉是不是 09/01 08:48
214F:→ jiaxie: 近三场守备都有这样的球 09/01 08:49
215F:推 HotGirlBear: 投手快抓狂了吧 09/01 08:49
216F:→ rong1994: 对面的Lee好猛 22轰 09/01 08:49
217F:推 Mryuan: 总之 太急 09/01 08:49
218F:推 Mrlegend: 等等打击来一只道歉一下 09/01 08:50
219F:推 koi33000: 灏宇不想让少主孤单 一起e 09/01 08:51
220F:推 CaminoI: 少主 你好歹要接到球阿…… 09/01 08:52
221F:推 jiaxie: 手套真的接不住球 09/01 08:52
222F:推 Mryuan: 还好少煮抢镜 09/01 08:52
223F:推 Marshalkobe2: 老虎的防守真的超好笑 09/01 08:52
224F:→ Mryuan: 又来XD 09/01 08:52
225F:推 koi33000: 差点出事 09/01 08:52
226F:→ CaminoI: 这两位刚好是老虎打击率一二名的 09/01 08:53
227F:推 zzz753951753: 跑者好帅 09/01 08:53
228F:推 wumint: 老虎今天球很烫 09/01 08:53
229F:→ CaminoI: 钉子John Peck:我准备好了 09/01 08:54
230F:推 rong1994: 老虎野手满满的(打击)天赋 09/01 08:54
231F:推 JeremyNeil: 二垒跳来跳去看投手没有 09/01 08:55
232F:→ CaminoI: McK上局也是有隐形失误 软弱球没接到变安打 09/01 08:55
233F:推 jiaxie: 12球了 09/01 08:55
234F:→ CaminoI: BB Jobe心里苦 09/01 08:55
235F:→ kevin74105: 守备搞死投手了 09/01 08:56
236F:推 CaminoI: 三分炮 09/01 08:57
237F:→ hansvonboltz: 买单 09/01 08:57
238F:推 hanx5566: 被惩罚了 09/01 08:57
239F:→ hanksadder: 炸 09/01 08:57
240F:推 rong1994: 崩了 09/01 08:58
241F:→ kevin74105: 乾出大事了 09/01 08:58
242F:推 myfreeday: 去了 09/01 08:58
243F:→ hanksadder: Jeffers 三分炮 09/01 08:58
244F:推 neo74214: 买单 09/01 08:58
245F:推 wumint: 失误伤害到了! 09/01 08:58
246F:推 JeremyNeil: 投手快吐了 09/01 08:59
247F:推 riya: 这些怪物打97mile高球跟吃饭喝水一样 09/01 08:59
248F:推 Mryuan: 苦情投手 09/01 08:59
249F:推 a27783322: 前少主完全爆炸 09/01 08:59
250F:→ Mrlegend: 四番就是猛 09/01 08:59
251F:推 kouhei: 这就是棒球你怎麽能不爱他 09/01 08:59
252F:推 bluehttp: 七月猛虎 八月变病猫 09/01 09:00
253F:推 a27783322: 看起来很不爽 09/01 09:02
254F:推 josh861010: 投手投到快哭出来 09/01 09:02
255F:推 as5688ck: 人还是要靠自己 09/01 09:03
256F:推 Mryuan: 集合 09/01 09:04
257F:推 seven782: 炸 09/01 09:04
258F:推 neyothen: 炸 09/01 09:04
259F:推 CaminoI: 炸裂啦 09/01 09:04
260F:推 inschool: 777777777777777 09/01 09:05
261F:推 hansvonboltz: 道歉野球 09/01 09:05
262F:推 leo79415: 用棒子道歉一下 QQ 09/01 09:05
263F:推 photoB1N: 77777 09/01 09:05
264F:推 a27783322: 哇操 炸 09/01 09:05
265F:推 jiaxie: 李炸裂啦 09/01 09:05
266F:推 LogDee: 炸裂! 09/01 09:05
267F:→ Mryuan: 炸 09/01 09:05
268F:推 cat110211: 道歉 09/01 09:05
269F:推 arrc21: 炸 09/01 09:05
270F:推 koi33000: 道歉啦 09/01 09:05
271F:推 zealotlai274: 可惜不是上ㄧ局 09/01 09:05
272F:→ hanksadder: 炸!!! 09/01 09:05
273F:推 xul4rmpcl4: 炸 09/01 09:05
274F:推 neo74214: 爽啦!!! 09/01 09:05
275F:推 amo2021: 炸裂! 09/01 09:05
276F:推 a23644910: 确信步 09/01 09:05
277F:推 qsc115: 道歉野球 09/01 09:05
278F:推 htckenny: 可惜不是上半局 09/01 09:05
279F:→ rong1994: 帅啊老李 09/01 09:05
280F:推 caeiu: 对自己太气了 先轰一发 09/01 09:05
281F:→ CaminoI: 刚才如果排七棒 就业卤蛋了 09/01 09:05
282F:推 mole1224: 好了 还你一分 道歉野球 09/01 09:05
283F:推 Mrlegend: 真的道歉了 09/01 09:05
284F:推 jammes: 道歉野球 09/01 09:05
285F:推 l5i9hbba: 道歉野球 自己丢的一分帮忙还 09/01 09:05
286F:→ a27783322: 逮到肉包 水 09/01 09:05
287F:推 mp5good: 炸炸炸 09/01 09:05
288F:推 v11nce1217: 笑死 真的带棒子上去守备 猛 09/01 09:05
289F:→ leo79415: 连投红中进来 真是把我李看没有 09/01 09:05
290F:推 signm: 妈的,真的好强 09/01 09:05
291F:→ CaminoI: 就「有」 09/01 09:05
292F:推 moonzone: 道歉了 09/01 09:05
293F:→ kaiic: 跟到啦 确信步 09/01 09:05
294F:推 singindream: 赞到不行!!! 09/01 09:05
295F:推 as5688ck: 李道歉一次 换少主了吗 09/01 09:05
296F:→ mp5good: 道歉野球 09/01 09:05
297F:推 Wwc0130: 舒服 刚开就看到了确信步 09/01 09:05
298F:推 thirtyto: 红中 炸 09/01 09:05
299F:推 gn7722: 整个确信步,超帅 09/01 09:05
300F:推 hpfan: 道歉野球还确信步!帅惨了! 09/01 09:05
301F:→ Jason1623: 一分还一分 09/01 09:05
302F:推 Ommmmmm5566: 打道奇太闷了 09/01 09:05
303F:推 sky71030706: 被前面那个自杀棒害死 09/01 09:06
304F:推 wouldyou: 道歉野球 鸡皮疙瘩 09/01 09:06
305F:推 Marshalkobe2: 他算丢三分 还欠两分 09/01 09:06
306F:→ Mryuan: ————-超级凶————- 09/01 09:06
307F:推 JeremyNeil: 道歉Leeeeeeeeee 09/01 09:06
308F:推 wumint: 今天双响才能道歉 09/01 09:06
309F:推 KansasMay: 爽啦 09/01 09:06
310F:推 ykd: 道歉炸裂 09/01 09:06
311F:→ Mrlegend: 算利息的话还欠一只满贯 09/01 09:07
312F:推 l5i9hbba: 这一发439 也是有够远 09/01 09:07
313F:→ koi33000: 不过李真的客场比较会打 09/01 09:07
314F:推 bluehttp: 可惜没人在垒 09/01 09:07
315F:推 Jimimy: 也不能这样算拉 後面有个保送 09/01 09:07
316F:推 yiersan: 爽 09/01 09:07
317F:推 leo79415: 这球初速109mhp 抛瓦真是夸张 09/01 09:07
318F:推 gn7722: 击球初速109.6 09/01 09:07
319F:→ l5i9hbba: Jobe後面自己还保送 有这样算的= =? 09/01 09:07
320F:推 rong1994: 只能说Hinch这个排棒次还是神人一个 左右病也不看数据 09/01 09:07
321F:→ gn7722: 我要是教练看到他每次的击球初速口水早流下来了 09/01 09:08
322F:推 tinlover227: 拜托再来一只 09/01 09:08
323F:→ gn7722: 李灏宇失误也就是变成一垒有人而已 09/01 09:08
324F:→ gn7722: 哪那麽严重 09/01 09:08
325F:推 zzz753951753: 李的打击排到9棒真的呵呵 09/01 09:08
326F:→ gn7722: 投手自己问题 09/01 09:08
327F:推 Marshalkobe2: 李的确信步很帅 真的很像中南美洲的强打 09/01 09:08
328F:→ CaminoI: 老虎球场特性 全垒打球不容易出去 09/01 09:08
329F:→ leo79415: 轮到少主道歉 09/01 09:08
330F:→ Jimimy: 李变起爆剂了 09/01 09:08
331F:→ rong1994: 明明打右就比较好 近况击球也都很紮实选球好 偏要摆9 09/01 09:09
332F:推 jiaxie: 老虎反攻来罗 09/01 09:09
333F:推 mp5good: 少主也道歉一颗吧 09/01 09:09
334F:推 kevin74105: 李在後面棒次真的打比较好 很玄 09/01 09:09
335F:→ CaminoI: 虎迷幻视胖卡布 www 09/01 09:09
336F:推 neo74214: 我不懂为什麽爱尔达中文转播不是播这场… 09/01 09:09
337F:→ CaminoI: 少主道歉失败 09/01 09:09
338F:推 KansasMay: 少主GG 09/01 09:09
339F:→ Marshalkobe2: 差点 09/01 09:09
340F:→ neo74214: 靠杯 好可惜 09/01 09:10
341F:→ Jimimy: 差点再道歉一次 09/01 09:10
342F:推 l5i9hbba: 少主差一点 09/01 09:10
343F:→ rong1994: 不过也可能投手垒上没人对後段棒次心态也有差啦 09/01 09:10
344F:推 Mryuan: 差一点道歉 09/01 09:10
345F:推 koi33000: 少主可惜 09/01 09:10
346F:→ mp5good: 打得不错啦差一点 09/01 09:10
347F:推 Mrlegend: 叮哥可以吗 09/01 09:10
348F:→ neo74214: 你他妈… 09/01 09:11
349F:推 fs1uc01s21: 惨 09/01 09:11
350F:→ koi33000: 丁哥… 09/01 09:11
351F:推 JeremyNeil: ....丁哥你他吗 09/01 09:11
352F:推 HotGirlBear: 要打击有棒子,要守备还是有棒子,MLB要的类型XD 09/01 09:11
353F:→ mp5good: 老虎打线真的... 09/01 09:11
354F:→ Mryuan: 可惜不是李 压棒到最後 09/01 09:11
355F:推 samyou: 惨 09/01 09:11
356F:推 Marshalkobe2: 又没了 真鸟 09/01 09:11
357F:推 jiaxie: 惨 dp 没再追分 09/01 09:11
358F:推 xx820110: 丁哥你… 09/01 09:11
359F:→ myfreeday: 丁哥..... 09/01 09:11
360F:推 a27783322: == 不是跟我说要反攻了 09/01 09:11
361F:→ hanksadder: 0.0 09/01 09:11
362F:→ rong1994: 好不连贯的打线 09/01 09:11
363F:推 wumint: 灏宇放4棒就好了! 09/01 09:11
364F:推 l5i9hbba: 李刚那一发挥棒速度80mph 超扯 09/01 09:11
365F:推 zzz753951753: 关电视,烂透了 09/01 09:11
366F:推 sky71030706: 我看起来是dp还没打完就dp 了 09/01 09:11
367F:→ GIGAADSL: 丁哥 可惜 09/01 09:12
368F:推 Jimimy: 话说这个确信步 下一个打席不会被砸吧 有些投手很敏感的 09/01 09:12
369F:推 asutoranakan: 对李灏宇丢红中,是失投还是投手瞧不起人啊.... 09/01 09:13
370F:推 CaminoI: 疯狂重播全垒打 XD 09/01 09:13
371F:推 s93310034: 改成高抬腿 整个挥棒变快了? 09/01 09:13
372F:推 stilu: 结果只拿hr那一分= = 09/01 09:13
373F:推 leo79415: 对面轰好几发也确性步丢棒没在客气的阿 没在看喔 09/01 09:13
374F:推 chargebro: 打到谁的毛巾 09/01 09:13
375F:→ CaminoI: 只有毛巾受伤 人没事 XD 09/01 09:13
376F:推 rong1994: 有够帅的这个确信步 09/01 09:13
377F:推 koi33000: 怎麽打出去的脸感觉没有很爽XD 09/01 09:13
378F:→ wumint: 仅管是右投,全队4安,李双安一轰,不该放9棒啊! 09/01 09:13
379F:→ CaminoI: 因为前面没人阿 09/01 09:14
380F:→ leo79415: 大概是李打後段棒次成绩比较好才放的 09/01 09:14
381F:→ CaminoI: 比数落後 才追一分而已 09/01 09:14
382F:→ koi33000: 打最好好像是第六棒 09/01 09:14
383F:推 asutoranakan: 赢太多,投手随便丢 09/01 09:14
384F:→ CaminoI: 这样说也不合理 之前放二棒也有和少主连线 09/01 09:14
385F:→ asutoranakan: 但老虎最近的确满贫打的 09/01 09:15
386F:→ koi33000: 9的好处可能是可以串前段棒次吧 09/01 09:15
387F:→ CaminoI: 说对道奇没打好 但整队都凉阿 09/01 09:15
388F:→ CaminoI: 投手你自己吞了吧 09/01 09:16
389F:推 Mrlegend: 傻眼 09/01 09:16
390F:推 Jimimy: 原来一垒指导教练是Sizemore 09/01 09:17
391F:推 marx93521: 老虎的守备…… 09/01 09:17
392F:推 s93310034: 九棒很好啊 压力小 对手会小看你 投红中给你 09/01 09:18
393F:→ Jimimy: 这投手投本垒和一垒都不准 09/01 09:18
394F:→ CaminoI: 排九棒 但打击率队上第二 也不可能多大意吧 09/01 09:19
395F:推 rong1994: 站在球队得分角度来看不该摆9 但对李来说摆9确实是不错 09/01 09:19
396F:→ rong1994: 啦 压力小投手也比较容易心态松懈 09/01 09:19
397F:推 neyothen: 放火牛棚 一堆坏球 09/01 09:19
398F:推 myfreeday: 太狂野了 09/01 09:19
399F:推 Jimimy: 这控球..... 09/01 09:20
400F:推 l5i9hbba: 现在都会有球探报告 灏宇的情报 怎麽可能会因为9棒就大 09/01 09:20
401F:→ l5i9hbba: 意.. 09/01 09:20
402F:→ rong1994: 不过每一场都少打一次也蛮亏的 09/01 09:20
403F:推 jiaxie: BB堆满垒 09/01 09:20
404F:推 Marshalkobe2: 这是鬼牛棚笑死 09/01 09:20
405F:→ chargebro: 超接近 09/01 09:20
406F:推 Loveis5566: Sizemore好熟悉的名字 09/01 09:20
407F:→ Marshalkobe2: 观众上去投还比较准 09/01 09:20
408F:→ Jimimy: 怎麽感觉这场会鲁阁 09/01 09:21
409F:→ chargebro: 互相挑战失败 09/01 09:21
410F:推 foxey: 主审鹰眼 09/01 09:21
411F:推 neyothen: 炸开 惨 09/01 09:21
412F:推 PPTenshi: 炸开罗 09/01 09:21
413F:推 rong1994: 神人牛棚 09/01 09:22
414F:推 myfreeday: 颗颗这场GG了 09/01 09:22
415F:推 CaminoI: 惨 09/01 09:22
416F:推 inschool: 喵 09/01 09:22
417F:→ saffron27: 换了一个更烂的 09/01 09:22
418F:→ hanksadder: 一棒清垒 要走远罗 09/01 09:22
419F:推 leo79415: 对面李也发威了 09/01 09:22
420F:推 koi33000: 清垒了 09/01 09:22
421F:推 jiaxie: 清光光 09/01 09:22
422F:推 thirtyto: 投了几个好球 到底 09/01 09:22
423F:→ powerman100: 老虎下课了…… 09/01 09:22
424F:→ CaminoI: 重点是少打一次很亏 往前段集中串连比较实在 09/01 09:22
425F:→ PPTenshi: 没有Jake Rogers了 野手还有谁能上来丢的 ZMac? 09/01 09:22
426F:推 MK47: 没差啦 专心看李就好了 09/01 09:23
427F:推 keltt: 一垒安打清垒 09/01 09:23
428F:→ CaminoI: 看板凳还有谁吧 差8分就能上野手了 09/01 09:23
429F:推 a27783322: lol 老虎可以专心练兵了 今年凉了 09/01 09:24
430F:→ PPTenshi: 自从被白袜横扫以後就崩了 09/01 09:24
431F:→ lsj049: 李灏宇会不会被叫上去投球啊www 09/01 09:24
432F:→ CaminoI: 4安1分 v.s. 7安8分 哈哈 09/01 09:24
433F:→ CaminoI: 就退回到五月的老虎阿 09/01 09:25
434F:推 shigeno24: 守备变-11了 怎麽涨这麽快 09/01 09:27
435F:→ McRay: 被打成北美软喵 09/01 09:29
436F:→ kevin74105: 要出大事了 准备堆垒包换LEE 09/01 09:30
437F:推 rong1994: 拜托 让李上来清垒 09/01 09:31
438F:推 leo79415: 李上来满贯一发 09/01 09:31
439F:推 CaminoI: 老虎X小编好像罢工 最新贴文停在灏宇制造DP 全垒打也没贴 09/01 09:32
440F:推 jiaxie: 不介意塞满垒 09/01 09:32
441F:→ rong1994: 感觉对李八成会换投 09/01 09:32
442F:→ CaminoI: 来了 09/01 09:32
443F:推 hpfan: 加油 09/01 09:32
444F:推 inschool: 冲阿 09/01 09:32
445F:推 zealotlai274: 有卤蛋 09/01 09:32
446F:推 cubanmesa: 集合 09/01 09:33
447F:推 Mryuan: 集合 09/01 09:33
448F:推 f8806kimo: 来罗来罗 09/01 09:33
449F:推 pandergast: 再来一发 09/01 09:33
450F:推 shigeno24: 2出局得点圈的Lee来了 09/01 09:33
451F:推 jerrychien06: 在道歉一发吧 09/01 09:33
452F:→ rong1994: 没换 领先太多 09/01 09:33
453F:推 PPTenshi: 敢不敢再一支 09/01 09:33
454F:推 neyothen: 太急了 09/01 09:33
455F:→ jerrychien06: 可惜啊 第一球好甜 09/01 09:33
456F:→ zealotlai274: 猜错啦 09/01 09:33
457F:→ CaminoI: 冷静阿 不要被骗到 09/01 09:33
458F:推 SphereDavid: 再一只吗 09/01 09:33
459F:推 woddy: 集合 09/01 09:33
460F:→ zealotlai274: 100 09/01 09:33
461F:→ CaminoI: 100四缝选掉 09/01 09:34
462F:推 jun10: 敢不敢双响 09/01 09:34
463F:→ CaminoI: 应该说破坏 09/01 09:34
464F:推 Axwell: 选 09/01 09:34
465F:→ jerrychien06: 100能碰掉 09/01 09:34
466F:→ Axwell: 选真好 09/01 09:34
467F:推 wumint: 越投越快! 09/01 09:34
468F:推 neyothen: 太高了吧被K 09/01 09:34
469F:推 CaminoI: 不 09/01 09:34
470F:→ zealotlai274: 还是上当了 09/01 09:35
471F:→ Axwell: 投手真猛 09/01 09:35
472F:推 foxey: 啊 被HFB骗了 09/01 09:35
473F:推 rong1994: 高球 哭啊 09/01 09:35
474F:→ ohya111326: K 09/01 09:35
475F:推 Jimimy: 高球还是忍不住 09/01 09:35
476F:推 chargebro: 100多球还可以100mile 09/01 09:35
477F:→ Axwell: 破百球还能投百mph 09/01 09:35
478F:推 PPTenshi: 被复仇了 09/01 09:35
479F:推 hpfan: 哭 09/01 09:35
480F:推 beauman002: 100球100mph 09/01 09:35
481F:推 a27783322: 100麦太狠了 09/01 09:35
482F:推 Roken241225: 这球太猛 没话说 09/01 09:35
483F:→ CaminoI: 100M还是太凶了 09/01 09:35
484F:→ rong1994: 100麦 怪物啊 09/01 09:35
485F:推 jttrumx: 100上窜的真难选 09/01 09:35
486F:→ jerrychien06: 这种球很难忍住 第一球很甜没打可惜 09/01 09:35
487F:→ CaminoI: 觉得有刻意对灏宇催球速 09/01 09:35
488F:推 Wwc0130: 可惜了 第一球没挥 09/01 09:35
489F:推 mp5good: 好猛 09/01 09:35
490F:推 evil4422: 很猛这球 看来李很想再尻一只 09/01 09:35
491F:推 samuncle123: 高球100麦 这被三振认了 09/01 09:36
492F:→ rong1994: 阿就下班最後一球了当然用力催 09/01 09:36
493F:推 leo79415: 至少这打席没再小看李了 09/01 09:36
494F:→ Jimimy: 因为应该投完他就要下了 09/01 09:36
495F:→ Roken241225: 这打击能攻击的球只有第一球 而且也是偏内角 09/01 09:36
496F:推 shigeno24: 丢在那个位置100麦IVB20 应该没人挥得到 09/01 09:36
497F:→ Jimimy: 第一球如果打定主意要打对投手也蛮危险的 09/01 09:36
498F:→ evil4422: 第一球比较可惜 09/01 09:36
499F:推 l5i9hbba: 可惜 第一球压线100能破坏如果是之前大概就擦棒被捕了 09/01 09:37
500F:推 lsj049: 刚刚选球再严谨一点就BB了 09/01 09:38
501F:→ lsj049: 可惜 09/01 09:38
502F:推 CaminoI: 第一球是最好的机会 但可能也打不远 09/01 09:38
503F:→ CaminoI: 炸裂轻轻松松 09/01 09:39
504F:推 beauman002: 快鲁阁了 09/01 09:39
505F:推 PPTenshi: 准备鲁阁罗 09/01 09:39
506F:→ lsj049: 下局大概要看到野手投球了 09/01 09:39
507F:推 marx93521: 惨啊老虎 09/01 09:39
508F:推 moonzone: 丸子 09/01 09:39
509F:推 gn7722: 肿麽被k惹 09/01 09:39
510F:推 Marshalkobe2: 李要上来投吗 09/01 09:42
511F:推 signm: 全队只剩李还醒着 09/01 09:45
512F:推 gn7722: 老虎凉打线,李灏宇应该是下班了 09/01 09:45
513F:→ gn7722: 老虎新秀大物打击率持续探底 09/01 09:46
514F:推 tnl0716: 前一打席被确信步 投手也想讨回来吧 认真催球速 09/01 09:47
515F:推 andy60214: 刚刚Max也是同角度被K一颗 09/01 09:49
516F:推 gn7722: 老虎持续出局如风 09/01 09:49
517F:→ gn7722: 李灏宇太急了,全垒打後应该会比较闪,至少可以看两颗 09/01 09:50
518F:推 a27783322: 少主最近也是蛮烙赛的 09/01 09:50
519F:推 leo79415: Mck上场投球 09/01 09:50
520F:→ gn7722: 投手连续两好球抢好球数机率不高 09/01 09:50
521F:推 mikehu: 野手上场 09/01 09:50
522F:→ godoggy: 主审好人 09/01 09:51
523F:推 beauman002: 也不挑战了赶时间 09/01 09:51
524F:推 evil4422: 不能挑战啊 09/01 09:51
525F:推 chargebro: 38 09/01 09:52
526F:→ leo79415: 野手投球不能挑战 主审也会故意放超大好球带 09/01 09:52
527F:→ beauman002: 对吼野手投球不能挑战 09/01 09:52
528F:推 marx93521: 倒是投进去啊 09/01 09:52
529F:推 a27783322: 少主下了 09/01 09:52
530F:→ chargebro: 这样还全垒打 09/01 09:52
531F:推 foxey: 炸野手大坏球 09/01 09:52
532F:→ leo79415: 没差拉 随便投投 09/01 09:52
533F:推 evil4422: 刷到了 09/01 09:52
534F:推 CaminoI: McK被炸 他代班的 算了啦 09/01 09:52
535F:推 koi33000: 今天状况好像刷野手 09/01 09:52
536F:→ marx93521: 被刷一发XDD 09/01 09:52
537F:→ a27783322: 鲁阁 09/01 09:52
538F:→ thirtyto: 尻到 09/01 09:52
539F:推 ken159753000: 太狠了 09/01 09:53
540F:推 rong1994: 不讲武德 09/01 09:53
541F:推 lsj049: 虾仁猪心 09/01 09:53
542F:推 setashuyo: 打慢垒大师 09/01 09:53
543F:→ kevin74105: 还好有李的1分 不然真的太惨了.. 09/01 09:53
544F:→ chargebro: 好像在打垒球 09/01 09:53
545F:→ marx93521: 还以为会界外 09/01 09:53
546F:推 evil4422: 这其实不好打欸 09/01 09:53
547F:→ thirtyto: 慢垒 尻全垒打 09/01 09:53
548F:推 AFranklin: 惨 09/01 09:53
549F:推 beauman002: 小便球大师 09/01 09:53
550F:→ leo79415: 没在练投的人光要丢进好球真的不容易 09/01 09:53
551F:推 lsj049: 灏宇移到二垒 09/01 09:53
552F:推 freeview: 不讲武德 09/01 09:54
553F:→ foxey: 这球慢成这样又大区度 不挥还真的很难进好球带 09/01 09:54
554F:→ chargebro: 笑死,丢到人 09/01 09:54
555F:嘘 huaiken: 老虎最近真的鸟 09/01 09:54
556F:→ CaminoI: 投球来说 罗杰真的比较强 可惜离开了 09/01 09:54
557F:→ leo79415: 靠邀 你刚刚怎麽不丢速球 09/01 09:54
558F:推 jun10: 这样也能丢人 笑死 09/01 09:54
559F:→ chargebro: 原来有速球 09/01 09:54
560F:推 Marshalkobe2: 偷催 09/01 09:54
561F:→ foxey: 当传球投就准了www 09/01 09:54
562F:→ beauman002: 认真罗 09/01 09:54
563F:→ thirtyto: 吓死 09/01 09:55
564F:→ marx93521: 不是这还能砸人的吗 09/01 09:55
565F:→ CaminoI: Peck也上来了 09/01 09:55
566F:→ Marshalkobe2: 又差点失误 09/01 09:55
567F:推 gn7722: 小便球也不会投喔? 09/01 09:55
568F:推 as5688ck: 连这样都可以差点失误 09/01 09:56
569F:→ marx93521: 靠北老虎传球怎麽都那麽可怕,这传二垒还差点喷掉 09/01 09:56
570F:→ gn7722: 较你阿嬷来都投得比你好 09/01 09:56
571F:→ CaminoI: 投球不容易阿 09/01 09:56
572F:→ gn7722: 你当野手传球不会喔? 09/01 09:56
573F:→ CaminoI: 难得投好结果没接好 09/01 09:57
574F:推 chargebro: 主审也太严格 09/01 09:57
575F:推 supreme123: 不是曲球就是小便球 看起来都一样啊XDD 09/01 09:57
576F:→ as5688ck: 主审还不想下班吗? 09/01 09:57
577F:推 beauman002: 偷催 09/01 09:57
578F:→ kevin74105: 超大好球带 09/01 09:57
579F:推 gn7722: 你就把捕手当成一垒手不就好了 09/01 09:57
580F:推 photoB1N: 欸在干嘛 09/01 09:57
581F:推 Mryuan: 笑死 09/01 09:58
582F:推 leo79415: 野手通常不丢太多速球是怕受伤啦 都在吃垃圾时间了 09/01 09:58
583F:→ chargebro: 真的当垒球在投 09/01 09:58
584F:→ CaminoI: 他长传臂力满好的 但不会投球 09/01 09:58
585F:→ gn7722: 你怎麽传一垒,你就怎麽传本垒啊 09/01 09:58
586F:→ CaminoI: 好人 09/01 09:58
587F:推 bluehttp: 老虎球迷应该也炸裂了 打太烂 09/01 09:58
588F:推 jun10: 主审根本乱判 09/01 09:59
589F:→ leo79415: 感觉没啥机会轮到李 除非对面也派野手上来 09/01 09:59
590F:推 jiaxie: 双城也可以回礼 09/01 10:00
591F:推 gn7722: 刚查了一下,老虎近7场比赛凉的可怕,几乎没人打击率超过 09/01 10:01
592F:→ gn7722: 2成 09/01 10:01
593F:→ gn7722: 是全队集体超凉那种没一个例外 09/01 10:02
594F:推 Jimimy: 话说大物Jenkins首轰是刷野手XDDD 09/01 10:03
595F:推 CaminoI: 真的很凉 09/01 10:04
596F:推 lsj049: MCK投手打击www 09/01 10:04
597F:推 PPTenshi: 这算是一种破产版大谷吗 09/01 10:06
598F:→ photoB1N: 88 09/01 10:08
599F:推 leo79415: 又在偷拍落寞的李 09/01 10:09
600F:推 Jimimy: 大家赶着离开 李一个人坐着 09/01 10:10
601F:→ jack86326: 道歉野球 https://youtu.be/hLik-Gj5yPs 09/01 13:32







like.gif 您可能会有兴趣的文章
icon.png[问题/行为] 猫晚上进房间会不会有憋尿问题
icon.pngRe: [闲聊] 选了错误的女孩成为魔法少女 XDDDDDDDDDD
icon.png[正妹] 瑞典 一张
icon.png[心得] EMS高领长版毛衣.墨小楼MC1002
icon.png[分享] 丹龙隔热纸GE55+33+22
icon.png[问题] 清洗洗衣机
icon.png[寻物] 窗台下的空间
icon.png[闲聊] 双极の女神1 木魔爵
icon.png[售车] 新竹 1997 march 1297cc 白色 四门
icon.png[讨论] 能从照片感受到摄影者心情吗
icon.png[狂贺] 贺贺贺贺 贺!岛村卯月!总选举NO.1
icon.png[难过] 羡慕白皮肤的女生
icon.png阅读文章
icon.png[黑特]
icon.png[问题] SBK S1安装於安全帽位置
icon.png[分享] 旧woo100绝版开箱!!
icon.pngRe: [无言] 关於小包卫生纸
icon.png[开箱] E5-2683V3 RX480Strix 快睿C1 简单测试
icon.png[心得] 苍の海贼龙 地狱 执行者16PT
icon.png[售车] 1999年Virage iO 1.8EXi
icon.png[心得] 挑战33 LV10 狮子座pt solo
icon.png[闲聊] 手把手教你不被桶之新手主购教学
icon.png[分享] Civic Type R 量产版官方照无预警流出
icon.png[售车] Golf 4 2.0 银色 自排
icon.png[出售] Graco提篮汽座(有底座)2000元诚可议
icon.png[问题] 请问补牙材质掉了还能再补吗?(台中半年内
icon.png[问题] 44th 单曲 生写竟然都给重复的啊啊!
icon.png[心得] 华南红卡/icash 核卡
icon.png[问题] 拔牙矫正这样正常吗
icon.png[赠送] 老莫高业 初业 102年版
icon.png[情报] 三大行动支付 本季掀战火
icon.png[宝宝] 博客来Amos水蜡笔5/1特价五折
icon.pngRe: [心得] 新鲜人一些面试分享
icon.png[心得] 苍の海贼龙 地狱 麒麟25PT
icon.pngRe: [闲聊] (君の名は。雷慎入) 君名二创漫画翻译
icon.pngRe: [闲聊] OGN中场影片:失踪人口局 (英文字幕)
icon.png[问题] 台湾大哥大4G讯号差
icon.png[出售] [全国]全新千寻侘草LED灯, 水草

请输入看板名称,例如:BuyTogether站内搜寻

TOP